Tracking 30746 objects as of 19-Jun-2025
HD Live streaming from Space Station
objects crossing your sky now

CP5

Track CP5 now!
10-day predictions
CP5 is classified as:


NORAD ID: 38763
Int'l Code: 2012-048F
Perigee: 434.8 km
Apogee: 612.6 km
Inclination: 64.7 °
Period: 95.0 minutes
Semi major axis: 6894 km
RCS: Unknown
Launch date: September 13, 2012
Source: United States (US)
Launch site: AIR FORCE WESTERN TEST RANGE (AFWTR)

Uplink (MHz):
Downlink (MHz): 437.405
Beacon (MHz): 437.405
Mode: 1200bps AFSK CW
Call sign: CP5
Status: Inactive

Your satellite tracking list
Your tracking list is empty




NASA's NSSDC Master Catalog

Two Line Element Set (TLE):
1 38763U 12048F   25169.61602671  .00007347  00000-0  31277-3 0  9998
2 38763  64.6560 263.4501 0128932 276.3360  82.3093 15.16463747 61432
Source of the keplerian elements: Caltech